www.pogodaiklimat.ru

Погода и климат >> Архив погоды >> Казахстан >> Сам


АРХИВ ПОГОДЫ в Саме

Время (UTC), дата Ветер
(напр.,м/с)
 
Видим.   Явления Облачность Т
(С)
Тd
(С)
f
(%)
Тe
(С)
Тes
(С)
Комфортность P
(гПа)
Po
(гПа)
Тmin
(С)
Tmax
(С)
R
(мм)
R24
(мм)
S
(см)
15 16.09 З 1 н/о 5/0
[Ac lent Ci sp]
+22.5 +4.8 32 +23 +23 комфорт 1016.0 1005.6 +27.0
18 16.09 штиль 0 н/о ясно +19.0 +5.6 41 +19 +19 1016.2 1005.7 +27.0
21 16.09 Ю 1 н/о ясно +15.1 +5.1 51 +16 +16 1015.9 1005.3
00 17.09 штиль 0 н/о ясно +13.0 +2.3 48 +13 +13 1015.5 1004.9
03 17.09 Ю 1 20 км ясно +15.8 +2.5 41 +17 +17 1015.4 1004.9
06 17.09 Ю 2 20 км 3/0
[Ac cast]
+25.9 +5.1 26 +25 +31 комфорт 1015.0 1004.9 +12.3
09 17.09 Ю 2 20 км 10/10 1000 м
[Sc]
+29.4 +1.3 16 +27 +27 жарко 1013.3 1002.8
12 17.09 С 2 20 км 10/10 1000 м
[Sc]
+30.5 +1.1 15 +28 +28 жарко 1010.7 1000.7
15 17.09 Ю 2 н/о 8/8 600 м
[Sc diur, vesp]
+26.3 -0.5 17 +24 +24 комфорт 1009.7 999.6 +30.7
18 17.09 Ю 3 н/о 8/8 600 м
[Sc diur, vesp]
+24.3 -0.5 19 +23 +23 комфорт 1009.5 999.3 +30.7
21 17.09 Ю 3 н/о 8/8 600 м
[Sc diur, vesp]
+22.1 -0.5 22 +21 +21 комфорт 1009.8 999.5
00 18.09 Ю 4 н/о 6/0
[Ci sp]
+20.1 +2.1 30 +20 +20 1005.5 995.1
03 18.09 Ю 3 20 км 6/0
[Ac lent]
+18.4 +0.4 30 +19 +19 1004.9 994.6
06 18.09 С 3 20 км 8/5 600 м
[Cb cap Ac trans]
+24.3 +2.1 23 +23 +25 комфорт 1006.2 996.0 +17.7
09 18.09 З 8 20 км ясно +27.8 +5.5 24 +27 +29 жарко 1007.7 997.6
12 18.09 З 8 20 км ясно +28.2 +6.5 25 +27 +28 жарко 1009.4 999.3
15 18.09 З 2 н/о ясно +24.7 +5.8 30 +25 +25 комфорт 1011.7 1001.5 +28.5
18 18.09 З 3 н/о ясно +18.7 +6.2 44 +19 +19 1012.9 1002.5 +28.5
21 18.09 З 3 н/о ясно +16.0 +6.1 52 +16 +16 1013.9 1003.4
00 19.09 З 3 н/о ясно +14.5 +7.7 64 +14 +14 1012.9 1004.1
03 19.09 ЮЗ 1 20 км ясно +12.9 +5.7 62 +13 +14 1015.5 1004.8
06 19.09 ЮЗ 5 20 км ясно +23.3 +9.0 40 +25 +29 комфорт 1016.1 1005.8 +11.9
09 19.09 З 4 20 км ясно +27.9 +5.6 24 +27 +34 жарко 1015.3 1005.1
12 19.09 З 6 20 км 3/3 1000 м
[Cu med, cong]
+28.4 +8.6 29 +28 +29 жарко 1015.0 1004.9
15 19.09 СЗ 4 н/о 3/3 1000 м
[Sc Ci fib]
+24.8 +8.0 34 +25 +25 комфорт 1016.2 1005.9 +29.5
18 19.09 СЗ 4 н/о 3/0
[Ci fib]
+18.9 +5.1 40 +19 +19 1018.1 1007.6 +29.5
21 19.09 ЮВ 2 н/о 3/0
[Ci fib]
+15.3 -2.7 29 +15 +15 1019.2 1008.6
00 20.09 штиль 0 н/о ясно +11.6 -3.8 34 +12 +12 1020.0 1009.2
03 20.09 СВ 1 20 км 4/0
[Ac lent]
+11.1 -4.1 34 +11 +12 1020.8 1010.0
06 20.09 В 5 20 км ясно +18.8 -0.9 26 +19 +22 1020.4 1009.9 +10.6
09 20.09 В 5 20 км ясно +23.3 -2.5 18 +22 +27 комфорт 1018.3 1007.9
12 20.09 В 3 20 км 5/0
[Ci sp]
+25.1 -3.0 15 +23 +25 комфорт 1016.2 1005.9
15 20.09 СВ 2 н/о ясно +18.3 -4.4 21 +19 +19 1014.7 1004.4 +25.5
18 20.09 В 3 н/о ясно +18.6 -6.0 18 +19 +19 1013.8 1003.4 +25.5
21 20.09 В 3 н/о ясно +16.3 -6.0 21 +16 +16 1013.3 1002.8
00 21.09 ЮВ 4 н/о ясно +17.7 +2.3 36 +17 +17 1008.4 998.0
03 21.09 Ю 4 20 км 3/0
[Ci sp]
+18.0 +5.5 44 +18 +18 1007.5 997.1
06 21.09 Ю 7 20 км 3/0
[Ci fib]
+29.1 +5.1 22 +28 +30 жарко 1006.6 996.6 +16.2
09 21.09 Ю 6 20 км 3/0
[Ac cuf Ci fib]
+32.7 +3.2 16 +30 +33 жарко 1003.3 993.5
12 21.09 Ю 9 20 км 3/1 300 м
[Cu hum Ci fib]
+34.4 +1.7 13 +31 +32 жарко 1000.4 990.6
15 21.09 СЗ 5 н/о 3/3 1000 м
[Sc Ci fib]
+26.3 +10.4 37 +27 +27 жарко 1001.1 991.1 +34.8
18 21.09 С 7 н/о ясно +17.5 +0.6 32 +17 +17 1004.6 994.3 +34.8
21 21.09 З 5 н/о слаб. дождь 10/10 600 м
[Frnb Ns]
+12.4 +9.0 80 +10 +10 1008.6 997.9
00 22.09 З 4 н/о слаб. дождь 10/10 600 м
[Frnb Ns]
+11.1 +9.3 89 +9 +9 1010.3 999.6
03 22.09 СЗ 6 20 км {дождь} 9/4 600 м
[Cb calv Ac cast Cc]
+10.3 +7.6 83 +7 +7 1012.9 1002.2
06 22.09 З 7 20 км 9/4 600 м
[Cb calv Ac cast Cc]
+13.2 +7.6 69 +11 +11 1015.3 1004.7 +10.0 7
09 22.09 З 7 20 км 8/8 1000 м
[Cu med, cong Ci fib]
+14.7 +5.0 52 +13 +13 1015.9 1005.2
12 22.09 З 8 10 км в посл. час ливневой дождь 9/9 600 м
[Cb cap]
+14.0 +7.0 63 +12 +12 1016.3 1005.6
15 22.09 З 5 н/о 3/3 600 м
[Cb calv Ci sp]
+13.2 +5.8 61 +11 +11 1017.7 1007.0 +16.4
18 22.09 ЮЗ 3 н/о ясно +10.6 +6.1 74 +9 +9 1019.3 1008.5 +16.4 0.9
21 22.09 ЮЗ 5 н/о ясно +9.5 +4.8 72 +6 +6 1019.5 1008.7
00 23.09 ЮЗ 3 н/о ясно +8.6 +4.0 73 +6 +6 1019.1 1008.2
03 23.09 ЮЗ 4 20 км 3/0
[Ac lent]
+10.7 +5.8 72 +8 +8 1018.6 1007.8
06 23.09 ЮЗ 9 20 км 3/0
[Ac lent]
+15.6 +7.6 59 +14 +14 1018.9 1008.3 +8.0
09 23.09 ЮЗ 10 20 км 8/6 1000 м
[Cb calv Ac cast]
+19.4 +6.2 42 +19 +19 1017.1 1006.6
12 23.09 ЮЗ 8 20 км 9/9 1000 м
[Sc]
+20.0 +7.0 43 +20 +20 1015.7 1005.2

 

Местоположение метеостанции Сам (Мангистауская область, Казахстан): широта 45.40 долгота 56.12 высота над уровнем моря 88 м.

В архиве по умолчанию представлена погода в Саме за последнюю неделю. Архивные данные за месяц целиком и за предыдущие месяцы, начиная с января 2011 года, Вы можете получить, выбрав интересующий диапазон дат из раскрывающегося списка и нажав кнопку "Ввод!".


*Определитесь, кто Вы:
робот инопланетянин человек

Внимание! Время в таблицах - всемирное. Для получения местного времени необходимо прибавить поправку, которая равна 5 ч.

Смотрите также архив погоды в соседних городах и на ближайших метеорологических станциях:

Погода в Каракалпакии (Каракалпакстан, Узбекистан) (63 км)
Погода в Бейнеу (Мангистауская область, Казахстан) (72 км)
Погода в Опорной (Мангистауская область, Казахстан) (144 км)
Погода в Жаслыке (Каракалпакстан, Узбекистан) (202 км)
Погода в Кульсары (Атырауская область, Казахстан) (230 км)
Погода в Сай-Утесе (Мангистауская область, Казахстан) (236 км)
Погода в Муйнаке (Каракалпакстан, Узбекистан) (276 км)
Погода в Аяккуме (Актюбинская область, Казахстан) (277 км)
Погода в Аккудуке (Мангистауская область, Казахстан) (314 км)
Погода в Сагизе (Атырауская область, Казахстан) (324 км)

Пояснения к столбцам:

Ветер - указаны скорость ветра в м/с - средняя за 10 мин, порывы в срок и между сроками (в фигурных скобках) и направление, откуда дует ветер: С - северный, СВ - северо-восточный, В - восточный, ЮВ - юго-восточный, Ю - южный, ЮЗ - юго-западный, З - западный, СЗ - северо-западный.
Видимость - горизонтальная дальность видимости в метрах или километрах. При видимости от 1 до 10 км при отсутствии осадков обычно наблюдается дымка, при ухудшении видимости до 1 км и менее - туман. В сухую погоду видимость может ухудшаться дымом, пылью или мглою.
Явления - указаны атмосферные явления, наблюдавшиеся в срок или в последний час перед сроком; фигурными скобками обозначены явления, наблюдавшиеся между сроками (за 1-3 часа до срока); квадратными скобками обозначены град или гололедные отложения с указанием их диаметра в мм.
Облачность - указаны через наклонную черту общая и нижняя облачность в баллах и высота нижней границы облаков в метрах; квадратными скобками обозначены формы облаков: Ci - перистые, Cs - перисто-слоистые, Cc - перисто-кучевые, Ac - высококучевые, As - высокослоистые, Sc - слоисто-кучевые, Ns - слоисто-дождевые, Cu - кучевые, Cb - кучево-дождевые. Подробнее классификацию облаков см. в Атласе облаков (PDF).
T - Температура воздуха - температура, измеренная на высоте 2 м над землей.
Td - Температура точки росы - температура, при понижении до которой содержащийся в воздухе водяной пар достигнет насыщения.
f - Относительная влажность воздуха - влажноcть воздуха, измеренная на высоте 2 м над землей.
Te - Эффективная температура - температура, которую ощущает одетый по сезону человек в тени. Характеристика душности погоды. При расчете учитывается влияние влажности воздуха и скорости ветра на теплоощущения человека.
Tes - Эффективная температура на солнце - температура, которую ощущает человек, с поправкой на солнечный нагрев. Характеристика знойности погоды. Зависит от высоты солнца над горизонтом, облачности и скорости ветра. Ночью, в пасмурную погоду, а также при ветре 12 м/с и более поправка равна нулю.
P - Атмосферное давление - приведенное к уровню моря атмосферное давление.
Po - Атмосферное давление - измеренное на уровне метеостанции атмосферное давление.
Tmin - Минимальная температура - минимум температуры воздуха на высоте 2 м над землей.
Tmax - Максимальная температура - максимум температуры воздуха на высоте 2 м над землей.
R - Количество осадков - Количество выпавших осадков за период времени, мм. При наведении курсора мыши на число - период времени, за который выпало указанное количество осадков.
R24 - Количество осадков - Количество выпавших осадков за 24 часа, мм.
S - Снежный покров - Высота снежного покрова, см. При наведении курсора мыши на число - состояние снежного покрова и степень покрытия местности в баллах.